Tracking 19634 objects as of 21-May-2019
HD Live streaming from Space Station
objects crossing your sky now

ESSA 4 (TOS-B)

Track ESSA 4 (TOS-B) now!
10-day predictions
ESSA 4 (TOS-B) is classified as:


NORAD ID: 2657
Int'l Code: 1967-006A
Perigee: 1,333.1 km
Apogee: 1,446.3 km
Inclination: 102.0 °
Period: 113.4 minutes
Semi major axis: 7760 km
RCS: 0.8222 m2 (medium)
Launch date: January 26, 1967
Source: United States (US)
Launch site: AIR FORCE WESTERN TEST RANGE (AFWTR)
aabbcc
Your satellite tracking list
Your tracking list is empty




NASA's NSSDC Master Catalog

Two Line Element Set (TLE):
1  2657U 67006A   19140.81473326 -.00000041 +00000-0 +41230-4 0  9998
2  2657 102.0052 194.9671 0072934 321.0002 152.1156 12.69844708424507
Source of the keplerian elements: AFSPC